Time,TemperatureF,DewpointF,PressureIn,WindDirection,WindDirectionDegrees,WindSpeedMPH,WindSpeedGustMPH,Humidity,HourlyPrecipIn,Conditions,Clouds,dailyrainin,SoftwareType,DateUTC
2013-04-29 00:12:00,50.0,47.0,30.29,SW,230,4.0,7.0,91,-99.99,,,-99.99,,2013-04-29 04:12:00,
2013-04-29 00:22:00,50.0,47.0,30.29,SW,230,4.0,7.0,91,-99.99,,,-99.99,,2013-04-29 04:22:00,
2013-04-29 00:32:00,50.0,47.0,30.29,SW,230,4.0,7.0,91,-99.99,,,-99.99,,2013-04-29 04:32:00,
2013-04-29 00:43:00,50.0,47.0,30.29,SW,230,4.0,7.0,91,-99.99,,,-99.99,,2013-04-29 04:43:00,
2013-04-29 00:50:00,50.0,47.0,30.29,SW,230,7.0,9.0,88,-99.99,,,-99.99,,2013-04-29 04:50:00,
2013-04-29 01:12:00,50.0,47.0,30.29,SW,230,7.0,9.0,88,-99.99,,,-99.99,,2013-04-29 05:12:00,
2013-04-29 01:22:00,50.0,47.0,30.29,SW,230,7.0,9.0,88,-99.99,,,-99.99,,2013-04-29 05:22:00,
2013-04-29 01:32:00,50.0,47.0,30.29,SW,230,7.0,9.0,88,-99.99,,,-99.99,,2013-04-29 05:32:00,
2013-04-29 01:42:00,50.0,47.0,30.29,SW,230,7.0,9.0,88,-99.99,,,-99.99,,2013-04-29 05:42:00,
2013-04-29 01:50:00,50.0,47.0,30.28,West,260,4.0,7.0,90,-99.99,,,-99.99,,2013-04-29 05:50:00,
2013-04-29 02:11:00,50.0,47.0,30.28,West,260,4.0,7.0,90,-99.99,,,-99.99,,2013-04-29 06:11:00,
2013-04-29 02:21:00,50.0,47.0,30.28,West,260,4.0,7.0,90,-99.99,,,-99.99,,2013-04-29 06:21:00,
2013-04-29 02:32:00,50.0,47.0,30.28,West,260,4.0,7.0,90,-99.99,,,-99.99,,2013-04-29 06:32:00,
2013-04-29 02:41:00,50.0,47.0,30.28,West,260,4.0,7.0,90,-99.99,,,-99.99,,2013-04-29 06:41:00,
2013-04-29 03:11:00,49.0,47.0,30.27,WSW,250,4.0,4.0,92,-99.99,,,-99.99,,2013-04-29 07:11:00,
2013-04-29 03:21:00,49.0,47.0,30.27,WSW,250,4.0,4.0,92,-99.99,,,-99.99,,2013-04-29 07:21:00,
2013-04-29 04:11:00,49.0,47.0,30.26,SW,220,2.0,4.0,92,-99.99,,,-99.99,,2013-04-29 08:11:00,
2013-04-29 04:21:00,49.0,47.0,30.26,SW,220,2.0,4.0,92,-99.99,,,-99.99,,2013-04-29 08:21:00,
2013-04-29 05:11:00,49.0,46.0,30.26,SSE,150,4.0,4.0,89,-99.99,,,-99.99,,2013-04-29 09:11:00,
2013-04-29 05:21:00,49.0,46.0,30.26,SSE,150,4.0,4.0,89,-99.99,,,-99.99,,2013-04-29 09:21:00,
2013-04-29 06:12:00,48.0,45.0,30.27,SE,140,4.0,4.0,89,-99.99,,,-99.99,,2013-04-29 10:12:00,
2013-04-29 06:22:00,48.0,45.0,30.27,SE,140,4.0,4.0,89,-99.99,,,-99.99,,2013-04-29 10:22:00,
2013-04-29 06:32:00,48.0,45.0,30.27,SE,140,4.0,4.0,89,-99.99,,,-99.99,,2013-04-29 10:32:00,
2013-04-29 06:50:00,48.0,44.0,30.29,SSE,150,2.0,4.0,86,-99.99,,,-99.99,,2013-04-29 10:50:00,
2013-04-29 07:11:00,48.0,44.0,30.29,SSE,150,2.0,4.0,86,-99.99,,,-99.99,,2013-04-29 11:11:00,
2013-04-29 07:21:00,48.0,44.0,30.29,SSE,150,2.0,4.0,86,-99.99,,,-99.99,,2013-04-29 11:21:00,
2013-04-29 07:31:00,48.0,44.0,30.29,SSE,150,2.0,4.0,86,-99.99,,,-99.99,,2013-04-29 11:31:00,
2013-04-29 07:41:00,48.0,44.0,30.29,SSE,150,2.0,4.0,86,-99.99,,,-99.99,,2013-04-29 11:41:00,
2013-04-29 07:50:00,48.0,45.0,30.30,SE,130,4.0,4.0,90,-99.99,,,-99.99,,2013-04-29 11:50:00,
2013-04-29 08:11:00,48.0,45.0,30.30,SE,130,4.0,4.0,90,-99.99,,,-99.99,,2013-04-29 12:11:00,
2013-04-29 08:21:00,48.0,45.0,30.30,SE,130,4.0,4.0,90,-99.99,,,-99.99,,2013-04-29 12:21:00,
2013-04-29 08:31:00,48.0,45.0,30.30,SE,130,4.0,4.0,90,-99.99,,,-99.99,,2013-04-29 12:31:00,
2013-04-29 08:41:00,48.0,45.0,30.30,SE,130,4.0,4.0,90,-99.99,,,-99.99,,2013-04-29 12:41:00,
2013-04-29 08:50:00,48.0,45.0,30.31,SSE,150,4.0,4.0,91,-99.99,,,-99.99,,2013-04-29 12:50:00,
2013-04-29 09:11:00,48.0,45.0,30.31,SSE,150,4.0,4.0,91,-99.99,,,-99.99,,2013-04-29 13:11:00,
2013-04-29 09:21:00,48.0,45.0,30.31,SSE,150,4.0,4.0,91,-99.99,,,-99.99,,2013-04-29 13:21:00,
2013-04-29 09:31:00,48.0,45.0,30.31,SSE,150,4.0,4.0,91,-99.99,,,-99.99,,2013-04-29 13:31:00,
2013-04-29 09:41:00,48.0,45.0,30.31,SSE,150,4.0,4.0,91,-99.99,,,-99.99,,2013-04-29 13:41:00,
2013-04-29 09:50:00,49.0,46.0,30.30,SSE,160,2.0,4.0,89,-99.99,,,-99.99,,2013-04-29 13:50:00,
2013-04-29 10:11:00,49.0,46.0,30.30,SSE,160,2.0,4.0,89,-99.99,,,-99.99,,2013-04-29 14:11:00,
2013-04-29 10:21:00,49.0,46.0,30.30,SSE,160,2.0,4.0,89,-99.99,,,-99.99,,2013-04-29 14:21:00,
2013-04-29 10:31:00,49.0,46.0,30.30,SSE,160,2.0,4.0,89,-99.99,,,-99.99,,2013-04-29 14:31:00,
2013-04-29 10:41:00,49.0,46.0,30.30,SSE,160,2.0,4.0,89,-99.99,,,-99.99,,2013-04-29 14:41:00,
2013-04-29 11:12:00,50.0,47.0,30.31,SSE,160,2.0,2.0,89,-99.99,,,-99.99,,2013-04-29 15:12:00,
2013-04-29 11:21:00,50.0,47.0,30.31,SSE,160,2.0,2.0,89,-99.99,,,-99.99,,2013-04-29 15:21:00,
2013-04-29 12:12:00,51.0,47.0,30.29,ESE,120,2.0,2.0,87,-99.99,,,-99.99,,2013-04-29 16:12:00,
2013-04-29 12:23:00,51.0,47.0,30.29,ESE,120,2.0,2.0,87,-99.99,,,-99.99,,2013-04-29 16:23:00,
2013-04-29 12:32:00,51.0,47.0,30.29,ESE,120,2.0,2.0,87,-99.99,,,-99.99,,2013-04-29 16:32:00,
2013-04-29 13:11:00,50.0,42.0,30.29,East,100,2.0,2.0,74,-99.99,,,-99.99,,2013-04-29 17:11:00,
2013-04-29 13:22:00,50.0,42.0,30.29,East,100,2.0,2.0,74,-99.99,,,-99.99,,2013-04-29 17:22:00,
2013-04-29 14:12:00,50.0,43.0,30.28,ESE,110,2.0,4.0,78,-99.99,,,-99.99,,2013-04-29 18:12:00,
2013-04-29 14:22:00,50.0,43.0,30.28,ESE,110,2.0,4.0,78,-99.99,,,-99.99,,2013-04-29 18:22:00,
2013-04-29 15:11:00,50.0,44.0,30.27,SE,130,4.0,4.0,77,-99.99,,,-99.99,,2013-04-29 19:11:00,
2013-04-29 15:21:00,50.0,44.0,30.27,SE,130,4.0,4.0,77,-99.99,,,-99.99,,2013-04-29 19:21:00,
2013-04-29 15:31:00,50.0,44.0,30.27,SE,130,4.0,4.0,77,-99.99,,,-99.99,,2013-04-29 19:31:00,
2013-04-29 16:11:00,50.0,45.0,30.27,ESE,120,4.0,4.0,80,-99.99,,,-99.99,,2013-04-29 20:11:00,
2013-04-29 16:21:00,50.0,45.0,30.27,ESE,120,4.0,4.0,80,-99.99,,,-99.99,,2013-04-29 20:21:00,
2013-04-29 16:32:00,50.0,45.0,30.27,ESE,120,4.0,4.0,80,-99.99,,,-99.99,,2013-04-29 20:32:00,
2013-04-29 17:11:00,51.0,44.0,30.26,North,0,0.0,2.0,77,-99.99,,,-99.99,,2013-04-29 21:11:00,
2013-04-29 17:21:00,51.0,44.0,30.26,North,0,0.0,2.0,77,-99.99,,,-99.99,,2013-04-29 21:21:00,
2013-04-29 17:32:00,51.0,44.0,30.26,North,0,0.0,2.0,77,-99.99,,,-99.99,,2013-04-29 21:32:00,
2013-04-29 17:50:00,50.0,44.0,30.26,South,170,4.0,4.0,80,-99.99,,,-99.99,,2013-04-29 21:50:00,
2013-04-29 18:12:00,50.0,44.0,30.26,South,170,4.0,4.0,80,-99.99,,,-99.99,,2013-04-29 22:12:00,
2013-04-29 18:22:00,50.0,44.0,30.26,South,170,4.0,4.0,80,-99.99,,,-99.99,,2013-04-29 22:22:00,
2013-04-29 18:32:00,50.0,44.0,30.26,South,170,4.0,4.0,80,-99.99,,,-99.99,,2013-04-29 22:32:00,
2013-04-29 18:42:00,50.0,44.0,30.26,South,170,4.0,4.0,80,-99.99,,,-99.99,,2013-04-29 22:42:00,
2013-04-29 18:50:00,51.0,43.0,30.27,SE,130,2.0,2.0,73,-99.99,,,-99.99,,2013-04-29 22:50:00,
2013-04-29 19:11:00,51.0,43.0,30.27,SE,130,2.0,2.0,73,-99.99,,,-99.99,,2013-04-29 23:11:00,
2013-04-29 19:22:00,51.0,43.0,30.27,SE,130,2.0,2.0,73,-99.99,,,-99.99,,2013-04-29 23:22:00,
2013-04-29 19:31:00,51.0,43.0,30.27,SE,130,2.0,2.0,73,-99.99,,,-99.99,,2013-04-29 23:31:00,
2013-04-29 19:41:00,51.0,43.0,30.27,SE,130,2.0,2.0,73,-99.99,,,-99.99,,2013-04-29 23:41:00,
2013-04-29 19:50:00,49.0,43.0,30.27,South,170,2.0,4.0,79,-99.99,,,-99.99,,2013-04-29 23:50:00,
2013-04-29 20:11:00,49.0,43.0,30.27,South,170,2.0,4.0,79,-99.99,,,-99.99,,2013-04-30 00:11:00,
2013-04-29 20:21:00,49.0,43.0,30.27,South,170,2.0,4.0,79,-99.99,,,-99.99,,2013-04-30 00:21:00,
2013-04-29 20:31:00,49.0,43.0,30.27,South,170,2.0,4.0,79,-99.99,,,-99.99,,2013-04-30 00:31:00,
2013-04-29 20:41:00,49.0,43.0,30.27,South,170,2.0,4.0,79,-99.99,,,-99.99,,2013-04-30 00:41:00,
2013-04-29 20:50:00,49.0,42.0,30.29,South,170,7.0,7.0,77,-99.99,,,-99.99,,2013-04-30 00:50:00,
2013-04-29 21:11:00,49.0,42.0,30.29,South,170,7.0,7.0,77,-99.99,,,-99.99,,2013-04-30 01:11:00,
2013-04-29 21:21:00,49.0,42.0,30.29,South,170,7.0,7.0,77,-99.99,,,-99.99,,2013-04-30 01:21:00,
2013-04-29 21:31:00,49.0,42.0,30.29,South,170,7.0,7.0,77,-99.99,,,-99.99,,2013-04-30 01:31:00,
2013-04-29 21:41:00,49.0,42.0,30.29,South,170,7.0,7.0,77,-99.99,,,-99.99,,2013-04-30 01:41:00,
2013-04-29 21:50:00,49.0,42.0,30.29,South,180,4.0,7.0,78,-99.99,,,-99.99,,2013-04-30 01:50:00,
2013-04-29 22:11:00,49.0,42.0,30.29,South,180,4.0,7.0,78,-99.99,,,-99.99,,2013-04-30 02:11:00,
2013-04-29 22:21:00,49.0,42.0,30.29,South,180,4.0,7.0,78,-99.99,,,-99.99,,2013-04-30 02:21:00,
2013-04-29 22:31:00,49.0,42.0,30.29,South,180,4.0,7.0,78,-99.99,,,-99.99,,2013-04-30 02:31:00,
2013-04-29 22:41:00,49.0,42.0,30.29,South,180,4.0,7.0,78,-99.99,,,-99.99,,2013-04-30 02:41:00,
2013-04-29 22:50:00,49.0,42.0,30.28,South,170,4.0,4.0,76,-99.99,,,-99.99,,2013-04-30 02:50:00,
2013-04-29 23:11:00,49.0,42.0,30.28,South,170,4.0,4.0,76,-99.99,,,-99.99,,2013-04-30 03:11:00,
2013-04-29 23:21:00,49.0,42.0,30.28,South,170,4.0,4.0,76,-99.99,,,-99.99,,2013-04-30 03:21:00,
2013-04-29 23:32:00,49.0,42.0,30.28,South,170,4.0,4.0,76,-99.99,,,-99.99,,2013-04-30 03:32:00,
2013-04-29 23:42:00,49.0,42.0,30.28,South,170,4.0,4.0,76,-99.99,,,-99.99,,2013-04-30 03:42:00,
2013-04-29 23:50:00,49.0,43.0,30.28,SSE,160,2.0,4.0,79,-99.99,,,-99.99,,2013-04-30 03:50:00,